This is the latest recevied weather packets stored in our database for station/object EA5FOG-11. If no packets are shown the sender has not sent any weather packets the latest 10 day(s).
| Time | Temp. | Humidity | Pressure | Rain* | Wind** | Luminosity | Snow |
|---|---|---|---|---|---|---|---|
| 1787848973 | 33.89° C | 27% | 954.5 hPa | - | - | - | - |
| 1787848067 | 34.44° C | 26% | 954.5 hPa | - | - | - | - |
| 1787847166 | 35° C | 26% | 954.4 hPa | - | - | - | - |
| 1787846265 | 36.11° C | 25% | 954.3 hPa | - | - | - | - |
| 1787845364 | 37.22° C | 24% | 954.4 hPa | - | - | - | - |
| 1787844463 | 38.33° C | 24% | 954.2 hPa | - | - | - | - |
| 1787843563 | 40° C | 23% | 954.2 hPa | - | - | - | - |
| 1787842662 | 38.89° C | 24% | 954.2 hPa | - | - | - | - |
| 1787841761 | 39.44° C | 23% | 954 hPa | - | - | - | - |
| 1787840860 | 39.44° C | 23% | 954 hPa | - | - | - | - |
| 1787839959 | 44.44° C | 22% | 954.2 hPa | - | - | - | - |
| 1787839059 | 43.33° C | 22% | 954.4 hPa | - | - | - | - |
| 1787838162 | 41.67° C | 23% | 954.5 hPa | - | - | - | - |
| 1787836376 | 43.89° C | 23% | 954.6 hPa | - | - | - | - |
| 1787835475 | 42.78° C | 24% | 954.6 hPa | - | - | - | - |
| 1787834574 | 42.78° C | 24% | 954.9 hPa | - | - | - | - |
| 1787833674 | 41.11° C | 25% | 955 hPa | - | - | - | - |
| 1787832773 | 40.56° C | 26% | 955.2 hPa | - | - | - | - |
| 1787831872 | 41.11° C | 26% | 955.3 hPa | - | - | - | - |
| 1787830971 | 40° C | 27% | 955.5 hPa | - | - | - | - |
| 1787830071 | 38.89° C | 28% | 955.6 hPa | - | - | - | - |
| 1787829170 | 36.67° C | 30% | 955.9 hPa | - | - | - | - |
| 1787828269 | 36.11° C | 30% | 956.1 hPa | - | - | - | - |
| 1787827368 | 35° C | 31% | 956.2 hPa | - | - | - | - |
| 1787826467 | 34.44° C | 32% | 956.2 hPa | - | - | - | - |
* Rain since midnight (hover to see other rain measurements)
** Current wind speed in m/s (hover to see current wind gust speed)